Regional Weather Roundup
Issued by NWS

Home | Current Version | Previous Version | Graphics & Text | Print | Product List | Glossary On
Versions: 1 2 3 4 5 6 7 8 9 10 11 12 13 14 15 16 17 18 19 20 21 22 23 24 25 26 27 28 29 30 31 32 33 34 35 36 37 38 39 40 41 42 43 44 45 46 47 48 49 50
000
ASUS43 KIND 180509
RWRIN

WEATHER ROUNDUP FOR INDIANA
NATIONAL WEATHER SERVICE INDIANAPOLIS IN
100 AM EDT SAT APR 18 2015

NOTE: "FAIR" INDICATES FEW OR NO CLOUDS BELOW 12,000 FEET WITH NO
SIGNIFICANT WEATHER AND/OR OBSTRUCTIONS TO VISIBILITY.

* - STATION DOES NOT REPORT WEATHER SUCH AS PRECIPITATION OR FOG.

+ - STATION NOT QUALITY CONTROLLED BY THE NATIONAL WEATHER SERVICE.
    USE DATA WITH CAUTION...ESPECIALLY DEWPOINT AND RELATIVE
    HUMIDITY OBSERVATIONS.

INZ001>003-010>013-019-020-180600-
NORTHWEST INDIANA

CITY           SKY/WX    TMP DP  RH WIND       PRES   REMARKS
GARY /AIRPORT/ CLEAR     56  46  70 CALM      30.02S
KNOX *+        CLOUDY    57  32  38 S5        30.02S
MICHIGAN CITY+ PTCLDY    57  41  54 CALM      30.02S
MONTICELLO +   CLEAR     56  47  72 CALM      30.02F
RENSSELAER +   CLEAR     59  46  63 SW3       30.03S
VALPARAISO     FAIR      59  45  59 S3        30.03S

$$

LMZ046-743>745-180600-
SOUTHERN LAKE MICHIGAN

STATION/POSITION TIME  TEMP WIND        PRES
                       AIR  DIR/SP/G
                 (UTC) (F)  (DEG/KT/KT) (MB)
BURNS HARBOR     0400   68  160/  5/  7 1016.9S
MICHIGAN CITY    0500   67  140/ 10/ 11   N/A
4NW MICH CITY    0500   59                N/A

$$

INZ004-005-014>016-021>024-180600-
NORTH CENTRAL INDIANA

CITY           SKY/WX    TMP DP  RH WIND       PRES   REMARKS
GOSHEN         CLEAR     54  46  74 S5        30.02F
LOGANSPORT +   CLEAR     57  45  62 S3        30.04F
PERU/GRISSOM   CLEAR     57  48  71 S2        30.03S
ROCHESTER +    CLEAR     59  55  88 CALM      30.04F
SOUTH BEND     CLEAR     56  44  64 SW3       30.03F
WARSAW +       PTCLDY    54  46  76 CALM      30.04S

$$

INZ006>009-017-018-025>027-180600-
NORTHEAST INDIANA

CITY           SKY/WX    TMP DP  RH WIND       PRES   REMARKS
ANGOLA *+      CLEAR     52  45  76 CALM      30.03S
AUBURN +       CLEAR     54  45  71 CALM      30.03F
FORT WAYNE     PTCLDY    53  47  79 SW5       30.04S
HUNTINGTON +   CLEAR     56  47  73 CALM      30.03F

$$

INZ028-029-035-036-043>045-051>053-180600-
WEST CENTRAL INDIANA

CITY           SKY/WX    TMP DP  RH WIND       PRES   REMARKS
CRAWFORDSVL +  CLEAR     51  45  79 CALM      30.04S
GREENCASTLE +  CLEAR     57  41  54 CALM      30.06R
LAFAYETTE      CLEAR     54  48  80 CALM      30.03S
TERRE HAUTE    CLEAR     57  50  77 CALM      30.05R

$$

INZ030>032-037>040-046>048-054>057-064-065-180600-
CENTRAL INDIANA

CITY           SKY/WX    TMP DP  RH WIND       PRES   REMARKS
CP ATTERBURY + CLEAR     52  46  82 CALM      30.05S
FISHERS *+     CLEAR     52  48  87 CALM      30.04F
FRANKFORT +    CLEAR     51  51  97 CALM      30.05F
GREENWOOD *+   CLEAR     57  41  54 CALM      30.05S
INDIANAPOLIS   NOT AVBL
-EAGLE CREEK   CLEAR     56  49  77 NW3       30.03F
KOKOMO *+      CLEAR     55  46  71 CALM      30.04S
MARION +       CLEAR     55  46  71 CALM      30.04F
MT COMFORT *+  CLEAR     54  43  66 CALM      30.04F
SHELBYVILLE    FAIR      56  47  71 E5        30.03F
ZIONSVILLE +   CLEAR     54  48  78 CALM      30.05S

$$

INZ033-034-041-042-049-050-058-059-180600-
EAST CENTRAL INDIANA

CITY           SKY/WX    TMP DP  RH WIND       PRES   REMARKS
MUNCIE         CLEAR     53  45  74 CALM      30.04F

$$

INZ060-061-067>069-081>083-085>088-180600-
SOUTHWEST INDIANA

CITY           SKY/WX    TMP DP  RH WIND       PRES   REMARKS
EVANSVILLE     CLEAR     60  57  89 SW6       30.05R FOG
HUNTINGBURG *+ CLEAR     59  55  88 W3        30.05R
WASHINGTON +   CLEAR     58  55  87 CALM      30.04R

$$

INZ062-063-066-070>080-084-089>092-180600-
SOUTH CENTRAL AND SOUTHEAST INDIANA

CITY           SKY/WX    TMP DP  RH WIND       PRES   REMARKS
BEDFORD +      CLEAR     59  48  67 CALM      30.05R
BLOOMINGTON    CLEAR     54  50  86 CALM      30.05R
MADISON *+     PTCLDY    55  50  82 CALM      30.05S
NORTH VERNON + PTCLDY    55  55 100 CALM      30.04F

$$




USA.gov is the U.S. government's official web portal to all federal, state and local government web resources and services.